This is the latest recevied weather packets stored in our database for station/object JR4VEV-13. If no packets are shown the sender has not sent any weather packets the latest 1 day(s).
| Time | Temp. | Humidity | Pressure | Rain* | Wind** | Luminosity | Snow |
|---|---|---|---|---|---|---|---|
| 1778046160 | 22.22° C | 57% | 1017.5 hPa | 0 mm | - | - | - |
| 1778045559 | 22.22° C | 58% | 1017.7 hPa | 0 mm | - | - | - |
| 1778044959 | 22.22° C | 57% | 1017.5 hPa | 0 mm | - | - | - |
| 1778044358 | 22.78° C | 58% | 1017.8 hPa | 0 mm | - | - | - |
| 1778043158 | 22.78° C | 57% | 1018.1 hPa | 0 mm | - | - | - |
| 1778041959 | 22.78° C | 57% | 1018.3 hPa | 0 mm | - | - | - |
| 1778041358 | 22.78° C | 56% | 1018.6 hPa | 0 mm | - | - | - |
| 1778040757 | 22.78° C | 55% | 1018.6 hPa | 0 mm | - | - | - |
| 1778040159 | 22.78° C | 55% | 1018.5 hPa | 0 mm | - | - | - |
| 1778039559 | 22.22° C | 55% | 1018.9 hPa | 0 mm | - | - | - |
| 1778038958 | 22.78° C | 55% | 1018.7 hPa | 0 mm | - | - | - |
| 1778038357 | 22.78° C | 54% | 1019.3 hPa | 0 mm | - | - | - |
| 1778037757 | 22.22° C | 54% | 1019.2 hPa | 0 mm | - | - | - |
| 1778037158 | 21.67° C | 54% | 1019.4 hPa | 0 mm | - | - | - |
| 1778036558 | 21.67° C | 54% | 1019.6 hPa | 0 mm | - | - | - |
| 1778035958 | 21.67° C | 52% | 1019.6 hPa | 0 mm | - | - | - |
| 1778035359 | 21.11° C | 52% | 1019.7 hPa | 0 mm | - | - | - |
| 1778034758 | 21.11° C | 53% | 1019.8 hPa | 0 mm | - | - | - |
| 1778034158 | 20.56° C | 53% | 1019.8 hPa | 0 mm | - | - | - |
| 1778033558 | 20.56° C | 52% | 1019.9 hPa | 0 mm | - | - | - |
| 1778032959 | 20.56° C | 52% | 1020.2 hPa | 0 mm | - | - | - |
| 1778032359 | 20.56° C | 55% | 1020.1 hPa | 0 mm | - | - | - |
| 1778031759 | 20° C | 58% | 1020.3 hPa | 0 mm | - | - | - |
| 1778031158 | 20° C | 59% | 1020.5 hPa | 0 mm | - | - | - |
| 1778029958 | 19.44° C | 62% | 1020.7 hPa | 0 mm | - | - | - |
* Rain latest hour (hover to see other rain measurements)
** Current wind speed in m/s (hover to see current wind gust speed)